Погода в Дарвине

Австралия     12°27′56″S   130°50′33″E
темп.,
°C
ветер,
м/с
пор.,
м/с
влажн.,
%
обл.,
%
осадки,
мм/ч
давл.,
гПа
погр.,
м
4 марта, чт
чт400:30+28зюз4781100 0.1 1009357
03:30+28з4786100 0.1 1008347
06:30+28з5788100 0.0 1008460
09:30+29з5783100 0.0 1010701
12:30+30з567876 0.0 1008837
15:30+30з797876 0.0 1006858
18:30+29з578481 0.0 1006574
21:30+28з478891 2.4 1009240
5 марта, пт
пт500:30+28зсз2281100 1.6 100877
03:30+28зсз588675 1.6 1007350
06:30+28з588787 0.0 1008468
09:30+30з578168 0.0 1010731
12:30+31з67760 0.0 1008879
15:30+31з67770 0.0 1006831
18:30+29зюз57850 0.0 1006607
21:30+28зюз358910 0.1 1008245
6 марта, сб
сб600:30+28зсз468980 0.1 1008242
03:30+28зсз699045 0.1 1007519
06:30+28з698755 0.0 1007710
09:30+30з687936 0.1 1009846
12:30+31з687714 0.0 1008896
15:30+30з68767 0.0 1006854
18:30+29з57810 0.0 1006701
21:30+28з35871 0.6 1008326
7 марта, вс
вс700:30+28зсз7108761 0.0 1008595
03:30+28з7108580 0.1 1007880
06:30+28з588444 0.1 1007782
09:30+30з677734 0.1 1009938
12:30+31з677622 0.0 1007991
15:30+31з677728 0.1 1005903
18:30+29з578335 0.0 1005775
21:30+29зсз358548 0.1 1008385
8 марта, пн
пн800:30+28зсз698687 0.0 1007643
03:30+29зсз698381 0.1 1006628
06:30+28зсз468766 0.6 1007450
09:30+29зсз578375 3.4 1008330
12:30+31з4575100 1.3 1007635
15:30+31з5571100 1.3 1005500
18:30+30з357678 0.3 1005358
21:30+29зсз348169 0.7 1007147